Location: Northcutt
(34.7304°N, 84.4305°W)
Time: 04:34:33
(UTC+00:00)

Vanguard 2 - Pass Details

Date: 12 October 2022
Orbit: 553 x 2933 km, 32.9° (Epoch: 05 December)

Event Time Altitude Azimuth Distance (km) Brightness Sun altitude
Rises 21:31:01 0° 281° (W) 5,134 12.7 18.1°
Reaches altitude 10° 21:34:10 10° 274° (W) 4,429 12.7 17.5°
Maximum altitude 21:46:15 44° 208° (SSW) 3,267 11.5 15.2°
Drops below altitude 10° 22:02:17 10° 144° (SE) 5,753 11.8 12.1°
Sets 22:07:08 0° 138° (SE) 6,749 12.1 11.1°
